Weather History for Farmingdale, NY

Change the Weather History Date:

Saturday, February 9, 2013

  Actual Average Record
Temperature  
Mean Temperature 26 °F -  
Max Temperature 30 °F 38 °F 53 °F (2005)
Min Temperature 21 °F 24 °F 15 °F (2011)
Degree Days  
Heating Degree Days 38    
Moisture  
Dew Point 16 °F    
Average Humidity 67    
Maximum Humidity 96    
Minimum Humidity 36    
Precipitation  
Precipitation 0.03 in - - ()
Sea Level Pressure  
Sea Level Pressure 29.92 in    
Wind  
Wind Speed 16 mph (NNW)    
Max Wind Speed 26 mph    
Max Gust Speed 39 mph    
Visibility 4 miles    
Events Fog , Rain , Snow    
Averages and records for this station are not official NWS values.
T = Trace of Precipitation, MM = Missing Value Source: NWS Daily Summary

Daily Weather History Graph

Daily Weather History Graph

Search for Another Location

Airport:

Trip Planner

Search our weather history database for the weather conditions in past years. The results will help you decide how hot, cold, wet, or windy it might be!

Date:

Astronomy

Feb. 09, 2013 Rise Set
Actual Time 6:54 AM EST 5:21 PM EST
Civil Twilight 6:26 AM EST 5:49 PM EST
Nautical Twilight 5:54 AM EST 6:22 PM EST
Astronomical Twilight 5:22 AM EST 6:54 PM EST
Moon 6:04 AM EST (2/9) 5:01 PM EST (2/9)
Length of Visible Light 11h 23m
Length of Day
10h 26m
Waning Crescent, 0% of the Moon is Illuminated
Feb 9
Waning Crescent
Feb 10
New
Feb 17
First Quarter
Feb 25
Full
Mar 4
Last Quarter

Hourly Weather History & Observations

Time (EST) Temp. Windchill Dew Point Humidity Pressure Visibility Wind Dir Wind Speed Gust Speed Precip Events Conditions
12:08 AM 26.6 °F 13.8 °F 24.8 °F 93% 29.69 in 0.5 mi North 17.3 mph 28.8 mph 0.00 in Fog , Rain , Snow Light Freezing Rain
12:46 AM 26.6 °F 14.3 °F 24.8 °F 93% 29.71 in 0.2 mi NNW 16.1 mph 24.2 mph 0.00 in Fog , Rain , Snow Light Freezing Rain
12:53 AM 26.1 °F 12.7 °F 24.1 °F 92% 29.71 in 0.2 mi North 18.4 mph 26.5 mph 0.00 in Fog , Rain , Snow Light Freezing Rain
1:22 AM 24.8 °F 12.9 °F 23.0 °F 93% 29.72 in 0.2 mi North 13.8 mph 32.2 mph 0.02 in Fog , Rain , Snow Light Freezing Rain
1:30 AM 24.8 °F 11.9 °F 23.0 °F 93% 29.73 in 0.2 mi NNW 16.1 mph 29.9 mph 0.02 in Fog , Rain , Snow Light Freezing Rain
1:38 AM 24.8 °F 12.4 °F 23.0 °F 93% 29.73 in 0.5 mi North 15.0 mph 28.8 mph 0.02 in Fog , Rain , Snow Light Freezing Rain
1:53 AM 25.0 °F 11.3 °F 24.1 °F 96% 29.74 in 0.5 mi NNW 18.4 mph 24.2 mph 0.02 in Fog , Rain , Snow Light Freezing Rain
2:53 AM 25.0 °F 11.3 °F 23.0 °F 92% 29.74 in 0.5 mi NNW 18.4 mph 38.0 mph 0.00 in Fog , Rain , Snow Light Freezing Rain
3:53 AM 25.0 °F 11.3 °F 23.0 °F 92% 29.75 in 0.5 mi NNW 18.4 mph 33.4 mph 0.00 in Fog , Rain , Snow Light Freezing Rain
4:23 AM 24.8 °F 10.7 °F 23.0 °F 93% 29.77 in 0.5 mi NNW 19.6 mph 28.8 mph 0.01 in Fog , Rain , Snow Light Freezing Rain
4:33 AM 24.8 °F 11.9 °F 23.0 °F 93% 29.77 in 0.2 mi NNW 16.1 mph 24.2 mph 0.01 in Fog , Rain , Snow Light Freezing Rain
4:48 AM 24.8 °F 12.4 °F 23.0 °F 93% 29.77 in 0.5 mi NNW 15.0 mph 32.2 mph 0.01 in Fog , Rain , Snow Light Freezing Rain
4:53 AM 25.0 °F 12.2 °F 23.0 °F 92% 29.78 in 0.5 mi NNW 16.1 mph 23.0 mph 0.01 in Fog , Rain , Snow Light Freezing Rain
5:01 AM 24.8 °F 13.4 °F 23.0 °F 93% 29.78 in 0.5 mi NNW 12.7 mph 21.9 mph 0.00 in Fog , Rain , Snow Light Freezing Rain
5:31 AM 26.6 °F 14.7 °F 23.0 °F 86% 29.79 in 1.0 mi NNW 15.0 mph 20.7 mph 0.00 in Rain , Snow Light Freezing Rain
5:38 AM 26.6 °F 16.2 °F 23.0 °F 86% 29.79 in 1.0 mi NNW 11.5 mph 23.0 mph 0.00 in Rain , Snow Light Freezing Rain
5:50 AM 26.6 °F 15.7 °F 23.0 °F 86% 29.79 in 3.0 mi NNW 12.7 mph 20.7 mph 0.00 in Rain , Snow Light Freezing Rain
5:53 AM 26.1 °F 16.2 °F 23.0 °F 88% 29.80 in 5.0 mi NNW 10.4 mph 19.6 mph 0.00 in Rain , Snow Light Freezing Rain
5:59 AM 26.6 °F 13.8 °F 21.2 °F 80% 29.80 in 9.0 mi NNW 17.3 mph 26.5 mph 0.00 in Rain , Snow Light Freezing Rain
6:53 AM 27.0 °F 16.1 °F 21.9 °F 81% 29.83 in 10.0 mi NNW 12.7 mph 23.0 mph 0.00 in Rain , Snow Light Freezing Rain
7:53 AM 28.0 °F 18.6 °F 21.9 °F 78% 29.85 in 10.0 mi NNW 10.4 mph 20.7 mph 0.00 in Rain , Snow Light Freezing Rain
8:53 AM 28.0 °F 17.0 °F 21.9 °F 78% 29.88 in 10.0 mi NNW 13.8 mph 21.9 mph 0.00 in Rain , Snow Light Freezing Rain
10:28 AM 28.4 °F 16.2 °F 21.2 °F 74% 29.92 in 2.0 mi NW 17.3 mph 34.5 mph N/A Rain , Snow Light Freezing Rain
10:38 AM 28.4 °F 14.4 °F 19.4 °F 69% 29.92 in 4.0 mi NNW 23.0 mph 34.5 mph N/A Rain , Snow Light Freezing Rain
10:53 AM 28.9 °F 15.8 °F 19.9 °F 69% 29.93 in 3.0 mi NNW 20.7 mph 33.4 mph N/A Rain , Snow Light Freezing Rain
11:53 AM 30.0 °F 16.6 °F 17.1 °F 59% 29.95 in 4.0 mi NNW 23.0 mph 32.2 mph N/A Rain , Snow Light Freezing Rain
12:40 PM 30.2 °F 16.5 °F 14.0 °F 51% 29.95 in 1.8 mi NNW 24.2 mph 36.8 mph N/A Rain , Snow Light Freezing Rain
12:53 PM 30.0 °F 15.7 °F 12.9 °F 49% 29.95 in 1.8 mi NNW 26.5 mph 39.1 mph N/A Rain , Snow Light Freezing Rain
1:19 PM 30.2 °F 17.1 °F 10.4 °F 44% 29.96 in 2.5 mi NNW 21.9 mph 38.0 mph N/A Rain , Snow Light Freezing Rain
1:40 PM 30.2 °F 17.8 °F 10.4 °F 44% 29.97 in 2.5 mi North 19.6 mph 36.8 mph N/A Rain , Snow Light Freezing Rain
1:50 PM 30.2 °F 18.9 °F 8.6 °F 40% 29.98 in 5.0 mi NNW 16.1 mph 34.5 mph N/A Rain , Snow Light Freezing Rain
1:53 PM 30.9 °F 18.4 °F 9.0 °F 40% 29.99 in 7.0 mi NNW 20.7 mph 31.1 mph N/A Rain , Snow Light Freezing Rain
2:04 PM 30.2 °F 17.8 °F 10.4 °F 44% 29.99 in 2.5 mi NNW 19.6 mph 38.0 mph N/A Rain , Snow Light Freezing Rain
2:16 PM 30.2 °F 16.5 °F 10.4 °F 44% 29.99 in 4.0 mi NNW 24.2 mph 33.4 mph N/A Rain , Snow Light Freezing Rain
2:26 PM 30.2 °F 17.4 °F 8.6 °F 40% 30.00 in 2.5 mi NNW 20.7 mph 36.8 mph N/A Rain , Snow Light Freezing Rain
2:53 PM 30.9 °F 19.8 °F 9.0 °F 40% 30.03 in 10.0 mi NNW 16.1 mph 27.6 mph N/A Rain , Snow Light Freezing Rain
3:53 PM 30.9 °F 20.7 °F 8.1 °F 38% 30.05 in 9.0 mi NNW 13.8 mph 25.3 mph N/A Rain , Snow Light Freezing Rain
4:53 PM 30.0 °F 17.2 °F 6.1 °F 36% 30.09 in 10.0 mi NNW 20.7 mph 28.8 mph N/A Rain , Snow Light Freezing Rain
5:53 PM 28.0 °F 19.3 °F 6.1 °F 39% 30.14 in 10.0 mi North 9.2 mph 16.1 mph N/A Rain , Snow Light Freezing Rain
6:53 PM 26.1 °F 18.4 °F 5.0 °F 41% 30.19 in 10.0 mi North 6.9 mph - N/A   Clear
7:53 PM 24.1 °F 18.2 °F 6.1 °F 46% 30.21 in 10.0 mi North 4.6 mph - N/A   Clear
8:53 PM 25.0 °F 14.2 °F 3.0 °F 39% 30.25 in 10.0 mi NNW 11.5 mph 18.4 mph N/A   Clear
9:53 PM 25.0 °F 14.2 °F 3.9 °F 41% 30.28 in 10.0 mi NNW 11.5 mph - N/A   Clear
10:53 PM 23.0 °F 11.7 °F 3.0 °F 42% 30.30 in 10.0 mi NNW 11.5 mph - N/A   Clear
11:53 PM 21.9 °F 11.0 °F 3.0 °F 44% 30.32 in 10.0 mi NNW 10.4 mph 21.9 mph N/A   Clear